Location: 22
(39.7117°N, 89.5929°W)
Time: 19:34:21
(UTC-05:00)

Vanguard 3 - Pass Details

Date: 02 February 2023
Orbit: 508 x 3249 km, 33.4° (Epoch: 30 March)

Event Time Altitude Azimuth Distance (km) Brightness Sun altitude
Rises 22:51:43 0° 275° (W) 5,509 11.7 -61.0°
Reaches altitude 10° 22:54:52 10° 271° (W) 4,814 11.2 -61.4°
Enters shadow 22:58:58 25° 264° (W) 4,043 10.6 -61.9°
Maximum altitude 23:09:30 60° 197° (SSW) 3,301 - -63.2°
Drops below altitude 10° 23:28:50 10° 125° (SE) 6,141 - -65.0°
Sets 23:33:31 0° 122° (ESE) 7,047 - -65.4°
